Temperature
16 16 17 17 17 18 19 21 22 22 23 22 22 22 21 20 20 18 16 16 15 16 16 16 16 16 15 15 15 15 15 14 14 15 14 14 14 15 15 15 15 14 14 15 15 15 15 15 15
16 16 17 18 17 18 19 21 21 22 22 21 21 21 21 19 18 17 15 15 15 15 15 15 15 15 15 15 15 15 15 15 14 14 14 14 14 14 15 15 14 14 15 14 14 15 15 15 15
15 16 17 17 18 18 20 21 21 21 21 20 21 20 20 18 17 16 15 15 15 15 15 15 15 15 15 15 15 15 14 14 14 14 14 14 14 14 14 14 14 14 14 14 14 14 14 14 14
15 16 17 17 18 19 20 20 20 20 20 20 20 19 18 17 16 15 15 15 14 14 14 15 15 15 15 15 15 14 14 14 14 14 14 14 14 14 14 14 14 14 14 14 14 14 14 14 14
15 16 16 17 18 19 20 20 20 20 19 20 19 19 17 16 15 15 14 14 14 14 14 15 14 15 15 15 14 14 14 14 14 14 14 14 14 14 14 14 14 14 14 14 14 14 14 14 14
15 17 16 16 18 19 20 20 20 19 19 19 19 18 16 15 15 14 14 14 14 14 14 14 14 14 14 14 14 14 14 14 14 14 14 14 14 14 14 14 14 14 14 14 14 14 14 14 14
15 15 16 17 18 18 19 19 19 18 19 19 18 17 15 14 14 14 14 13 13 13 14 14 14 14 14 14 14 14 14 14 14 14 14 14 14 14 14 14 14 14 14 14 14 14 14 14 13
14 15 16 17 17 18 19 19 18 18 18 18 17 16 15 14 13 13 13 13 13 13 13 13 13 13 13 14 13 14 14 14 14 14 14 14 14 14 14 14 14 14 14 14 14 14 14 13 13
14 14 15 16 17 17 18 17 18 17 17 17 16 16 15 14 13 13 12 12 12 12 12 13 13 13 13 13 13 13 13 13 13 13 13 13 13 13 14 14 13 13 13 13 13 13 13 13 13
14 13 15 16 16 16 16 16 16 16 16 16 15 15 14 14 13 12 12 12 12 12 12 12 12 12 12 13 13 13 13 13 13 13 13 13 13 13 13 13 13 13 13 13 13 13 13 12 12
14 14 15 15 15 15 15 15 15 15 15 15 15 14 13 13 12 12 12 11 11 11 11 11 12 12 12 12 13 13 13 13 13 13 13 13 13 13 13 13 13 13 13 13 13 12 12 12 12
14 14 15 15 14 14 14 15 15 15 15 15 15 14 13 13 12 12 11 11 11 11 11 11 12 12 12 12 12 12 12 12 12 12 12 13 13 12 12 12 13 13 13 12 12 12 12 12 12
14 14 14 14 13 13 14 14 14 14 14 15 14 14 13 13 12 12 11 11 11 11 11 11 11 11 12 12 12 12 12 12 12 12 12 12 12 12 12 12 12 12 12 12 12 12 12 11 11
13 13 13 13 13 13 13 13 14 14 14 14 14 13 13 12 12 11 11 11 11 11 11 11 11 11 12 12 12 12 12 12 12 12 12 12 12 12 12 12 12 12 12 12 11 11 11 11 11
13 13 13 14 14 14 13 13 13 14 14 14 14 13 13 12 12 11 11 11 11 10 11 11 11 11 11 11 11 11 11 12 12 12 12 12 12 12 12 11 11 12 11 11 11 11 11 11 11
13 13 12 14 14 14 12 12 14 14 14 14 14 13 13 12 12 11 11 11 10 10 10 10 10 11 11 11 11 11 11 11 11 12 12 12 12 11 11 11 11 11 11 11 11 11 11 11 10
13 12 13 14 14 14 13 12 14 14 14 14 14 13 13 12 12 11 11 11 10 10 10 10 10 10 11 11 10 10 11 11 11 11 11 11 11 11 11 11 11 11 11 11 11 11 11 10 10
12 12 13 13 14 13 12 12 14 14 14 14 14 13 13 12 12 11 11 11 10 10 10 10 10 10 10 10 10 10 10 10 10 11 11 11 11 11 11 11 11 10 10 10 10 10 10 10 10
12 12 12 12 13 13 12 13 13 14 14 13 14 13 13 12 12 11 11 11 10 10 10 10 10 10 10 10 10 10 10 10 10 10 10 10 10 10 10 10 10 10 10 10 10 10 10 10 9
12 11 12 12 13 13 12 12 14 14 13 13 13 13 13 12 12 11 11 10 10 10 10 10 10 10 10 10 10 10 10 10 10 10 10 10 10 10 10 10 10 10 10 10 10 10 9 9 9
12 11 11 11 12 12 12 12 13 14 14 14 13 13 13 12 12 11 10 10 10 10 10 9 9 10 10 10 10 9 9 9 9 9 10 10 10 10 10 10 10 10 9 9 9 9 9 9 9
11 12 11 11 10 10 12 10 12 13 12 13 12 12 12 12 12 11 10 10 10 10 10 9 9 9 9 9 9 9 9 9 10 10 10 9 9 9 10 10 9 9 9 9 9 9 9 9 9
11 11 11 11 10 10 11 10 11 13 12 12 12 12 12 12 11 11 10 10 10 9 10 9 9 9 9 9 9 9 9 9 9 9 9 9 9 9 9 9 9 9 9 9 9 8 8 8 8
11 10 10 10 10 9 11 10 11 11 12 12 12 12 12 11 11 11 10 10 10 9 9 9 9 9 9 9 9 9 9 9 9 9 9 9 9 9 9 9 9 9 9 8 8 8 8 8 8
10 9 9 9 9 10 12 11 11 12 12 12 11 12 11 11 11 11 10 10 9 9 9 9 9 9 9 9 9 8 8 8 9 9 9 9 9 9 9 9 8 8 8 8 8 8 7 7 7
10 10 9 9 9 10 11 10 11 12 12 12 12 11 11 10 10 10 10 9 9 9 9 8 8 9 9 8 8 8 8 8 8 8 8 8 8 8 8 8 8 8 8 8 7 7 7 7 7
10 9 10 9 9 9 11 12 12 12 11 11 11 11 11 10 10 9 9 9 9 9 8 8 8 8 8 8 8 8 8 8 8 8 8 8 8 8 8 8 8 8 7 7 7 7 7 7 6
10 10 9 9 9 9 11 12 10 10 10 10 10 10 10 10 9 9 9 9 8 8 8 8 8 8 8 8 8 8 8 8 8 7 7 8 8 8 7 7 7 7 7 7 7 7 7 6 6
9 9 9 9 9 9 9 10 11 10 10 10 10 10 10 9 9 8 8 8 8 8 8 7 7 7 7 7 8 8 7 7 7 7 7 7 7 7 7 7 7 7 7 6 6 6 6 6 6
10 10 10 8 8 9 8 9 11 10 10 10 10 10 10 9 8 8 8 8 8 7 7 7 7 7 7 7 7 7 7 7 7 7 7 7 6 6 6 6 6 6 6 6 6 6 6 6 5
Wind_Speed
17 15 6 3 3 5 6 5 5 3 1 4 6 4 5 5 4 5 4 6 9 8 11 11 10 9 8 7 7 7 7 7 8 8 7 7 8 8 7 7 7 7 8 8 10 10 11 11 11
14 10 4 3 4 5 5 6 5 2 2 4 3 3 3 3 5 7 5 6 7 8 10 10 10 9 8 7 7 7 7 7 8 7 7 7 7 7 7 7 7 7 8 9 10 11 11 11 11
11 8 4 3 4 5 4 2 1 3 4 3 2 2 3 3 6 4 5 5 6 7 9 9 10 9 8 7 7 6 7 7 7 7 7 7 7 7 7 7 7 7 9 10 10 11 11 11 10
5 3 3 4 6 5 5 4 4 4 3 2 2 2 3 5 4 5 5 4 5 6 8 9 9 9 8 7 7 7 7 6 6 7 7 7 7 7 7 7 7 8 9 10 11 11 11 11 10
4 3 4 5 7 6 4 3 3 1 1 1 1 1 3 5 9 7 4 3 4 5 7 8 9 9 8 8 7 7 7 6 6 6 7 7 7 7 7 7 8 8 9 10 10 11 11 10 10
3 3 4 6 6 5 4 2 2 3 2 1 2 2 1 5 7 5 3 2 3 5 6 7 8 9 9 8 8 7 7 7 6 6 6 7 7 7 8 8 8 8 9 10 10 11 10 10 9
3 3 5 5 5 4 3 2 2 3 4 1 2 2 2 6 5 3 2 1 2 4 5 6 7 7 8 8 8 7 7 7 7 6 6 7 7 7 8 8 8 8 9 10 10 10 10 9 8
4 3 5 5 6 5 3 2 2 3 4 2 1 1 1 3 5 3 2 2 2 3 4 4 6 6 7 7 8 8 8 8 7 7 7 7 7 7 8 7 8 8 9 10 10 10 9 8 7
4 3 4 4 5 4 4 4 3 3 3 3 3 3 1 5 4 3 2 2 2 2 3 3 4 4 5 7 8 8 8 8 8 7 7 7 7 7 7 8 8 8 9 10 9 8 8 7 6
2 3 4 4 5 6 6 5 5 3 4 3 2 2 3 4 3 2 1 1 0 0 0 2 3 3 4 6 8 8 7 8 8 7 7 6 6 8 8 8 9 9 9 9 8 7 7 6 5
2 3 5 5 6 7 7 6 4 4 6 5 3 1 3 2 3 3 3 2 1 0 0 1 2 3 3 4 6 6 7 7 7 8 6 6 7 7 8 7 8 8 8 6 6 6 5 5 5
3 5 6 5 5 6 7 6 5 6 7 5 3 4 4 5 5 5 4 3 2 1 0 1 1 3 3 3 3 4 5 4 4 6 7 6 4 4 5 5 6 7 6 4 5 4 5 5 6
4 5 6 6 6 7 8 8 8 8 8 6 2 4 5 5 4 4 3 3 2 2 1 0 1 2 3 2 3 4 4 4 5 5 6 7 4 3 4 4 4 5 6 4 4 4 5 4 5
4 6 7 7 8 7 8 8 7 7 5 5 3 4 5 5 5 4 3 3 3 3 2 1 1 2 2 1 1 3 4 5 6 5 5 6 6 4 4 4 3 4 4 4 4 4 4 4 4
6 7 7 7 7 4 5 7 7 7 5 5 4 4 4 5 5 5 4 3 3 3 3 2 1 2 3 1 1 2 4 6 5 5 6 6 6 5 4 3 3 3 4 4 5 5 4 3 3
6 5 4 3 3 3 3 7 5 4 5 5 4 3 4 4 5 5 4 4 4 4 4 3 2 2 3 2 1 2 3 5 5 6 6 6 6 6 5 4 3 4 4 3 3 3 3 3 3
3 3 5 3 2 2 4 8 5 4 4 6 5 4 4 3 4 4 4 4 5 4 4 3 3 3 2 3 2 2 3 4 5 6 6 6 6 6 6 4 4 4 3 2 2 3 3 3 3
4 5 5 6 3 4 6 9 6 4 3 4 4 4 3 4 4 4 5 4 4 5 4 4 3 2 2 3 3 2 2 2 4 5 6 7 6 6 6 5 5 5 2 2 2 3 3 3 3
7 8 9 8 5 4 8 9 7 4 3 3 3 3 3 3 3 4 4 4 4 5 5 4 4 3 3 3 3 3 2 2 2 3 6 7 6 6 6 4 4 4 3 3 3 3 4 3 3
7 9 9 8 5 5 7 9 6 3 2 1 2 3 3 3 3 4 4 5 4 4 5 5 4 4 3 2 2 3 3 2 2 2 4 6 6 6 6 5 4 4 3 3 3 3 3 2 2
7 6 6 8 8 7 6 6 4 2 2 1 1 2 2 2 3 4 4 4 4 4 5 5 5 5 4 3 2 4 3 2 2 2 2 3 5 6 6 6 5 5 4 4 3 3 4 4 2
6 3 6 7 7 5 3 4 4 3 1 1 1 1 2 2 2 4 4 5 5 4 4 5 5 5 5 5 4 5 4 4 3 3 3 2 4 5 6 6 5 5 4 4 4 3 3 4 3
4 5 7 8 7 7 5 4 5 2 2 2 1 1 2 2 1 3 4 5 5 4 4 4 4 4 4 5 5 5 4 3 3 4 4 3 3 4 6 6 5 4 4 4 4 3 3 3 4
4 6 7 6 3 5 6 5 4 1 1 1 2 1 1 1 1 1 3 4 4 4 4 4 5 4 5 5 5 6 6 5 6 5 5 3 2 3 4 6 5 5 4 4 4 4 4 3 3
3 3 3 2 3 5 2 3 4 2 2 1 2 3 2 1 1 0 2 3 3 4 4 4 5 5 5 5 5 5 6 6 7 6 5 5 3 3 4 5 5 4 5 5 5 4 4 3 4
3 2 1 3 3 3 2 5 3 4 4 2 2 3 3 3 2 2 1 3 3 4 4 4 4 4 5 5 5 4 4 4 4 6 6 6 5 5 5 5 5 5 6 6 5 4 4 3 4
2 2 1 3 5 5 5 4 3 3 3 2 3 3 4 3 3 2 2 2 4 4 4 4 3 3 4 4 4 4 4 4 4 5 5 4 4 5 6 6 6 6 6 6 6 4 5 4 4
4 2 1 2 3 5 6 4 2 2 1 2 3 4 4 4 4 3 2 2 2 4 4 4 3 3 3 3 3 3 3 4 4 4 5 5 5 5 7 6 6 6 6 6 5 5 5 5 4
5 4 4 4 4 3 4 3 2 3 2 1 2 3 3 4 3 2 2 1 1 2 3 3 3 3 3 3 3 2 3 3 4 4 4 5 5 6 6 6 6 6 6 6 6 5 6 6 5
4 5 4 3 5 4 4 4 3 5 4 2 2 3 3 3 3 2 2 2 2 1 2 2 2 2 3 3 3 3 3 3 4 4 5 5 5 6 6 6 6 6 6 6 7 6 6 6 6
Wind_Direction
312 296 277 261 246 231 236 250 273 298 353 24 21 356 346 356 10 97 132 88 100 112 121 127 123 117 117 118 114 112 108 108 112 112 111 110 110 108 106 104 105 103 100 99 96 92 90 87 86
302 299 279 242 243 236 234 236 246 266 43 50 39 350 329 45 61 95 96 85 102 111 123 129 130 127 123 121 123 120 117 112 114 113 111 110 112 112 110 111 109 105 104 102 98 95 93 90 88
285 272 265 240 236 245 256 288 348 50 73 71 56 0 359 53 71 88 83 88 96 103 115 129 134 134 131 128 127 124 123 116 117 120 116 116 116 114 109 108 107 105 106 104 100 98 94 93 91
291 251 240 247 244 252 269 307 25 45 55 59 41 61 55 51 72 82 77 78 94 102 112 133 140 140 135 133 135 132 128 125 121 127 128 124 121 118 112 109 108 108 109 106 104 102 98 95 93
254 255 230 230 245 261 280 314 11 342 28 7 330 352 39 54 71 75 68 81 103 110 114 136 144 143 141 139 137 138 134 133 128 131 136 130 125 121 117 111 109 111 113 112 109 107 102 97 93
269 247 238 233 238 242 258 314 338 309 282 263 288 296 111 90 73 73 54 70 106 113 116 135 146 145 146 144 146 144 143 140 137 135 138 136 130 127 122 114 112 112 114 115 113 110 106 102 95
291 276 255 257 256 258 275 330 324 299 299 303 340 327 132 89 78 70 45 52 89 108 115 129 142 143 147 146 148 146 145 144 141 138 135 133 131 129 127 121 119 119 116 116 115 113 109 106 97
305 292 261 262 264 270 308 320 317 304 297 4 25 314 175 112 87 71 48 50 70 107 117 134 142 142 143 145 148 144 145 140 141 140 136 136 137 136 134 127 123 122 117 115 116 117 115 109 100
290 266 264 280 289 296 336 331 328 328 308 337 351 341 335 111 96 76 59 55 57 78 123 143 144 141 144 150 147 139 143 144 144 150 153 155 151 142 127 127 128 128 122 119 121 126 128 123 110
272 266 278 312 327 330 329 325 324 316 293 292 341 26 101 117 131 148 167 149 116 75 170 150 149 145 144 154 149 150 154 158 161 164 174 170 143 134 131 134 138 137 131 128 132 142 141 135 123
273 261 298 312 333 327 317 313 312 286 275 274 263 156 142 169 177 196 200 195 196 176 229 117 140 132 127 142 161 156 155 168 164 165 164 129 126 138 141 137 143 143 144 141 139 148 136 123 107
267 281 286 298 325 317 307 304 295 272 275 299 277 190 185 201 205 207 203 201 196 185 265 101 139 133 136 152 149 145 150 158 150 161 155 137 133 140 141 146 155 151 145 142 141 132 128 122 114
265 272 285 295 296 289 289 284 282 275 282 296 283 199 214 215 216 221 207 205 190 178 174 359 141 141 148 150 158 155 152 152 144 150 153 141 133 138 131 127 136 136 140 145 132 122 119 109 106
304 299 293 282 272 271 275 278 273 274 276 277 249 219 216 214 212 207 205 205 189 179 163 141 158 143 133 147 181 148 144 146 139 146 148 143 141 134 128 115 117 118 128 137 126 116 111 109 100
278 271 271 256 248 248 281 276 257 268 277 271 254 238 217 206 199 202 203 196 181 176 162 153 180 143 137 148 185 137 142 142 140 146 147 145 138 138 130 120 120 117 123 119 109 105 101 110 107
255 258 260 249 237 211 229 276 279 274 272 273 260 243 228 210 196 197 192 188 176 170 159 154 158 142 147 140 138 122 137 137 137 140 141 141 140 139 126 118 114 123 119 111 120 120 113 106 106
237 274 283 285 236 254 239 271 281 280 262 264 262 255 237 211 198 187 180 173 163 158 150 149 129 130 149 135 120 111 122 124 131 136 138 144 144 143 128 122 123 126 118 119 137 114 120 115 105
308 307 296 293 290 294 271 270 278 282 281 268 255 251 242 216 202 180 171 158 148 146 142 132 114 120 136 135 123 107 114 122 125 127 135 141 148 149 134 135 139 134 127 129 124 118 104 113 122
297 290 289 293 293 289 273 277 276 262 274 287 281 261 251 220 183 161 153 148 142 139 142 143 141 140 142 148 147 145 162 149 131 132 140 143 148 146 139 141 142 138 144 153 147 127 117 105 109
274 281 287 297 304 292 278 279 267 225 218 249 281 277 259 212 172 155 152 155 159 154 153 157 159 159 163 167 164 151 148 152 142 126 133 145 148 150 148 141 141 132 134 133 133 131 135 134 126
272 272 290 304 311 272 276 282 246 224 203 228 266 294 281 222 181 169 166 167 165 167 168 174 174 171 165 151 139 132 124 123 136 147 143 142 148 150 148 147 143 142 144 147 145 153 149 156 170
283 314 302 303 306 285 261 283 256 228 218 331 358 316 304 290 197 173 174 174 176 179 173 173 173 174 170 158 161 163 159 165 174 160 146 143 148 149 150 149 146 144 143 147 153 160 156 148 166
284 322 295 283 277 285 264 253 266 199 215 286 306 285 288 292 245 188 180 178 173 169 166 173 169 177 174 169 171 179 172 162 145 142 144 151 151 152 152 151 147 146 146 149 153 156 155 146 152
292 291 275 255 259 268 237 221 273 206 216 273 314 306 283 279 279 215 180 162 163 156 156 169 171 179 180 179 178 185 179 164 154 153 157 157 158 158 152 148 148 149 147 148 153 153 151 148 142
256 290 318 296 230 246 201 213 247 136 84 50 340 342 347 6 0 332 154 147 159 167 170 180 176 181 186 187 189 191 183 173 169 165 166 164 168 173 172 159 156 153 146 145 142 143 150 154 156
247 256 255 280 276 291 236 231 210 123 100 63 24 12 17 26 18 11 100 152 164 168 171 179 184 185 188 190 189 187 184 180 176 173 171 178 179 178 171 162 157 154 151 150 148 147 156 154 162
250 225 265 289 290 278 248 210 150 102 82 42 6 13 21 27 28 30 20 134 158 169 172 178 184 180 184 187 184 185 183 181 181 174 169 171 166 162 160 163 160 159 159 159 157 160 165 161 167
253 289 269 238 280 284 273 241 218 151 109 29 9 9 14 21 24 24 19 36 127 161 163 164 169 172 173 171 178 182 176 176 175 167 171 168 164 159 162 167 167 167 166 165 163 164 164 161 167
193 217 228 246 248 261 288 292 50 119 117 66 10 8 24 16 12 12 7 20 81 122 144 155 159 154 159 165 162 161 165 168 163 166 176 169 161 161 164 167 169 172 171 168 168 171 167 169 171
214 218 210 228 259 247 264 274 74 89 82 74 19 359 19 31 18 21 27 36 45 71 127 151 158 157 165 167 165 169 172 172 172 176 175 169 166 166 167 167 170 174 174 173 174 177 175 177 179
Height
1503 1504 1505 1508 1509 1508 1505 1498 1491 1490 1490 1493 1494 1496 1497 1500 1503 1512 1512 1510 1509 1510 1511 1512 1513 1515 1516 1517 1518 1519 1521 1522 1523 1524 1525 1526 1526 1527 1528 1529 1529 1530 1531 1532 1532 1533 1533 1534 1535
1503 1504 1507 1507 1508 1510 1504 1495 1492 1491 1492 1494 1496 1498 1499 1502 1504 1507 1508 1509 1509 1510 1511 1512 1513 1514 1515 1516 1518 1519 1520 1521 1522 1524 1525 1525 1526 1527 1528 1529 1530 1530 1531 1532 1532 1533 1534 1535 1535
1503 1504 1507 1504 1504 1506 1501 1492 1491 1491 1493 1495 1498 1499 1501 1504 1506 1507 1508 1509 1509 1509 1510 1511 1512 1513 1514 1516 1517 1518 1520 1521 1522 1523 1524 1525 1526 1527 1528 1529 1530 1531 1531 1532 1533 1534 1534 1535 1536
1504 1506 1505 1505 1503 1498 1495 1492 1492 1493 1494 1497 1498 1501 1503 1506 1506 1506 1507 1508 1509 1509 1509 1510 1511 1513 1514 1515 1516 1517 1519 1520 1521 1522 1524 1525 1526 1527 1528 1528 1530 1531 1532 1532 1533 1534 1535 1535 1536
1504 1504 1504 1504 1501 1496 1493 1493 1493 1494 1496 1498 1499 1501 1503 1506 1505 1505 1506 1507 1508 1508 1508 1509 1510 1511 1513 1514 1515 1516 1518 1519 1520 1522 1523 1524 1525 1526 1528 1529 1530 1531 1532 1533 1533 1534 1535 1536 1537
1505 1502 1505 1504 1499 1494 1493 1494 1494 1495 1496 1498 1500 1501 1504 1505 1504 1505 1506 1507 1507 1507 1507 1508 1509 1510 1511 1513 1514 1515 1517 1518 1519 1521 1522 1523 1525 1526 1527 1528 1529 1531 1532 1533 1534 1534 1535 1536 1537
1506 1503 1502 1499 1498 1495 1494 1494 1495 1496 1497 1498 1499 1501 1503 1503 1503 1504 1505 1506 1506 1506 1506 1507 1508 1509 1510 1511 1513 1514 1515 1517 1518 1520 1521 1523 1524 1525 1527 1528 1529 1531 1532 1533 1534 1535 1535 1537 1538
1504 1504 1500 1499 1498 1497 1495 1495 1496 1497 1497 1498 1499 1500 1501 1502 1502 1503 1504 1505 1505 1505 1505 1506 1506 1508 1508 1510 1511 1513 1514 1516 1517 1519 1520 1522 1523 1525 1526 1527 1529 1530 1531 1532 1533 1535 1536 1537 1538
1505 1507 1504 1500 1499 1497 1496 1496 1496 1496 1497 1498 1498 1499 1499 1499 1500 1502 1502 1503 1503 1504 1504 1504 1504 1505 1506 1508 1509 1511 1513 1514 1516 1517 1519 1520 1522 1523 1525 1527 1528 1529 1531 1532 1533 1535 1536 1537 1538
1505 1507 1503 1500 1499 1499 1498 1497 1497 1497 1496 1497 1498 1498 1498 1498 1499 1499 1500 1500 1501 1502 1502 1503 1503 1504 1505 1506 1508 1509 1511 1513 1514 1516 1518 1519 1521 1522 1524 1526 1527 1529 1530 1532 1533 1534 1536 1537 1538
1504 1505 1503 1501 1501 1501 1499 1498 1498 1497 1497 1496 1496 1497 1497 1497 1497 1498 1498 1499 1499 1500 1500 1501 1502 1502 1503 1504 1506 1507 1509 1511 1513 1514 1516 1518 1520 1521 1523 1524 1526 1528 1529 1531 1532 1534 1535 1536 1538
1505 1504 1503 1502 1501 1501 1500 1499 1497 1496 1495 1495 1494 1494 1494 1495 1495 1496 1496 1497 1498 1498 1498 1499 1499 1500 1501 1502 1504 1505 1507 1509 1511 1513 1514 1516 1518 1520 1521 1523 1525 1526 1528 1530 1531 1533 1535 1536 1537
1504 1503 1502 1501 1501 1500 1499 1498 1497 1494 1494 1493 1492 1492 1492 1492 1493 1494 1495 1495 1496 1496 1496 1496 1497 1498 1500 1501 1502 1503 1505 1507 1509 1511 1513 1515 1516 1518 1520 1522 1524 1525 1527 1529 1530 1532 1534 1535 1537
1504 1503 1502 1500 1499 1498 1497 1495 1495 1491 1491 1490 1490 1490 1490 1490 1490 1491 1492 1493 1493 1494 1494 1495 1495 1496 1497 1498 1500 1501 1503 1505 1507 1509 1511 1513 1514 1516 1518 1520 1522 1524 1525 1528 1529 1531 1533 1534 1536
1504 1503 1500 1497 1496 1496 1496 1494 1491 1489 1489 1488 1488 1488 1488 1488 1488 1489 1489 1490 1491 1491 1491 1492 1493 1494 1495 1496 1497 1499 1501 1503 1505 1507 1509 1511 1512 1514 1516 1518 1520 1522 1524 1526 1528 1530 1532 1533 1535
1502 1502 1501 1495 1493 1493 1498 1495 1488 1487 1486 1486 1485 1486 1486 1486 1486 1487 1487 1488 1489 1489 1489 1490 1491 1492 1493 1494 1495 1497 1499 1501 1503 1505 1507 1508 1511 1512 1514 1516 1519 1521 1522 1525 1526 1528 1530 1532 1534
1501 1502 1498 1495 1491 1491 1494 1492 1486 1484 1484 1483 1483 1483 1483 1483 1484 1484 1485 1485 1486 1486 1487 1488 1488 1490 1491 1493 1494 1496 1498 1500 1501 1503 1505 1507 1509 1511 1512 1514 1517 1520 1521 1523 1525 1526 1528 1530 1532
1505 1502 1498 1496 1491 1491 1491 1488 1483 1482 1481 1480 1480 1480 1480 1480 1481 1481 1482 1483 1483 1484 1484 1485 1486 1488 1489 1491 1492 1494 1496 1498 1500 1501 1503 1505 1507 1509 1511 1513 1515 1518 1519 1521 1523 1524 1526 1528 1530
1503 1502 1500 1495 1490 1490 1489 1485 1481 1479 1479 1478 1478 1478 1478 1478 1479 1479 1479 1480 1481 1481 1482 1483 1484 1485 1487 1488 1489 1491 1493 1496 1498 1499 1501 1503 1505 1507 1509 1510 1513 1515 1517 1519 1521 1523 1524 1526 1528
1502 1501 1498 1493 1488 1488 1486 1483 1477 1476 1476 1476 1476 1476 1476 1476 1477 1477 1477 1477 1478 1479 1480 1480 1482 1483 1484 1486 1487 1490 1492 1494 1496 1498 1499 1501 1503 1505 1506 1508 1510 1512 1515 1516 1518 1520 1522 1524 1526
1500 1500 1498 1496 1490 1486 1486 1484 1477 1474 1474 1475 1474 1474 1474 1474 1474 1474 1475 1475 1476 1476 1477 1478 1479 1481 1482 1484 1486 1487 1490 1492 1493 1495 1497 1499 1501 1503 1504 1506 1508 1510 1512 1514 1516 1518 1520 1521 1523
1500 1495 1495 1495 1497 1494 1487 1495 1479 1473 1473 1473 1473 1473 1472 1472 1473 1473 1473 1473 1473 1474 1475 1476 1477 1479 1480 1481 1483 1484 1485 1488 1490 1492 1494 1497 1499 1500 1502 1504 1506 1507 1510 1512 1513 1515 1517 1519 1521
1498 1495 1495 1495 1495 1495 1488 1493 1481 1471 1473 1472 1471 1471 1471 1471 1471 1471 1471 1471 1472 1473 1473 1474 1475 1476 1478 1479 1481 1482 1484 1486 1488 1490 1492 1494 1496 1498 1499 1501 1503 1505 1507 1509 1511 1513 1514 1516 1518
1497 1496 1494 1493 1496 1499 1485 1488 1481 1474 1471 1470 1470 1469 1469 1469 1469 1469 1469 1469 1470 1471 1471 1472 1473 1474 1475 1476 1478 1480 1482 1483 1485 1487 1489 1492 1494 1495 1497 1499 1501 1502 1504 1506 1508 1510 1512 1513 1515
1498 1501 1503 1501 1501 1493 1478 1481 1479 1469 1468 1468 1468 1468 1467 1467 1467 1467 1467 1467 1468 1468 1469 1470 1470 1471 1473 1474 1475 1477 1479 1481 1482 1484 1486 1488 1490 1492 1494 1496 1498 1500 1501 1503 1505 1507 1509 1511 1512
1497 1498 1506 1505 1498 1488 1479 1481 1472 1466 1467 1467 1468 1468 1467 1466 1466 1465 1465 1465 1465 1466 1467 1468 1468 1469 1471 1472 1473 1475 1477 1478 1480 1482 1484 1486 1488 1490 1492 1493 1495 1497 1498 1500 1502 1504 1506 1508 1510
1495 1497 1495 1500 1495 1493 1481 1469 1468 1465 1467 1467 1468 1467 1466 1465 1465 1464 1464 1464 1464 1464 1465 1466 1467 1467 1469 1470 1471 1472 1474 1475 1477 1479 1481 1483 1485 1487 1489 1491 1492 1494 1496 1497 1499 1501 1503 1505 1506
1495 1494 1498 1501 1501 1495 1479 1470 1473 1469 1468 1468 1467 1466 1466 1465 1464 1464 1463 1463 1463 1463 1464 1465 1465 1466 1467 1468 1469 1470 1471 1473 1475 1476 1478 1480 1482 1484 1486 1487 1489 1491 1493 1495 1496 1498 1500 1501 1503
1494 1495 1494 1495 1493 1496 1490 1480 1466 1466 1466 1467 1467 1466 1466 1465 1464 1463 1462 1462 1462 1462 1462 1463 1463 1464 1465 1466 1467 1468 1469 1471 1473 1474 1475 1477 1479 1481 1482 1484 1486 1488 1490 1492 1493 1495 1496 1498 1499
1486 1487 1490 1497 1494 1489 1490 1484 1465 1465 1466 1466 1467 1466 1465 1465 1464 1463 1462 1461 1461 1461 1461 1461 1461 1462 1463 1464 1465 1466 1467 1469 1470 1471 1472 1474 1476 1478 1479 1481 1483 1485 1486 1488 1490 1491 1493 1494 1495